Regional Weather Roundup
Issued by NWS

Home | Current Version | Previous Version | Text Only | Print | Product List | Glossary On
Versions: 1 2 3 4 5 6 7 8 9 10 11 12 13 14 15 16 17 18 19 20 21 22 23 24 25 26 27 28 29 30 31 32 33 34 35 36 37 38 39 40 41 42 43 44 45 46 47 48 49 50
000
ASUS42 KFFC 182010
RWRGA
WEATHER ROUNDUP FOR GEORGIA
NATIONAL WEATHER SERVICE PEACHTREE CITY GA
400 PM EDT SUN APR 18 2021

NOTE: "FAIR" INDICATES FEW OR NO CLOUDS BELOW 12,000 FEET WITH NO
SIGNIFICANT WEATHER AND/OR OBSTRUCTIONS TO VISIBILITY.

* = USE WITH CAUTION. THE STATIONS MARKED WITH AN ASTERISK MAY NOT
REPORT WEATHER SUCH AS PRECIPITATION, FOG, OR THUNDER AND ARE NOT
QUALITY CONTROLLED BY NWS.

THE REMARK "TC" DENOTES TEMPERATURE READING IN DEGREES CELSIUS.

GAZ001>058-182100-
NORTH GEORGIA

CITY           SKY/WX    TMP DP  RH WIND       PRES   REMARKS
ATLANTA        MOSUNNY   72  40  31 VRB6      29.87F
ATHENS         SUNNY     73  42  32 W7        29.85F
CHAMBLEE       SUNNY     70  38  31 NW8       29.87F
PEACHTREE CITY MOSUNNY   72  39  30 W8G17     29.88F
ROME           MOSUNNY   69  40  34 N12G17    29.89F
WEST ATLANTA   SUNNY     71  40  32 N7        29.87F
GAINESVILLE    SUNNY     70  34  26 VRB6G16   29.87F
CARTERSVILLE   SUNNY     66  39  37 VRB7      29.90F


CITY           SKY/WX    TMP DP  RH WIND       PRES   REMARKS
DALTON*        MOSUNNY   70  32  24 N3        29.91F
LAWRENCEVILLE* SUNNY     72  39  30 SW9G16    29.86F
MARIETTA       MOSUNNY   70  37  30 W5        29.87F
KENNESAW*      MOSUNNY   69  38  32 W12G20    29.89F
CANTON*        SUNNY     70  32  24 W8G18     29.90F
BLAIRSVILLE*   MOSUNNY   66  37  33 N3        29.88F
$$

GAZ059>098-102>109-182100-
CENTRAL GEORGIA

CITY           SKY/WX    TMP DP  RH WIND       PRES   REMARKS
AUGUSTA-BUSH   MOSUNNY   79  42  26 SW8G20    29.81F
AUGUSTA-DANIEL SUNNY     78  43  28 W10       29.83F
COLUMBUS       SUNNY     75  43  31 NW10G17   29.86F
MACON          MOSUNNY   79  47  32 W13       29.84F
ROBINS AFB     MOSUNNY   77  46  32 NW8       29.83F


CITY           SKY/WX    TMP DP  RH WIND       PRES   REMARKS
LAGRANGE*      SUNNY     71  38  29 NW3       29.88F
SYLVANIA*      MOSUNNY   80  46  31 W9        29.83F
MILLEDGEVILLE* MOSUNNY   77  46  33 W8        29.85F
$$

GAZ099>101-110>166-182100-
SOUTH GEORGIA

CITY           SKY/WX    TMP DP  RH WIND       PRES   REMARKS
SAVANNAH       PTSUNNY   78  54  43 SW10      29.81F
VALDOSTA       CLOUDY    72  63  73 VRB3      29.87F
ALMA           PTSUNNY   75  58  55 VRB5      29.84F
ST SIMONS      PTSUNNY   74  64  71 W9        29.84F
FT STEWART     MOSUNNY   77  57  50 W6        29.80F
ALBANY         PTSUNNY   80  55  42 SW3       29.86F
HUNTER AFB     MOSUNNY   80  59  47 SW8G17    29.79F
MOODY AFB      CLOUDY    72  61  67 SW6       29.85F
BRUNSWICK      CLOUDY    73  61  66 W9        29.85F


CITY           SKY/WX    TMP DP  RH WIND       PRES   REMARKS
BAINBRIDGE*    PTSUNNY   73  58  59 CALM      29.86F
MOULTRIE*      PTSUNNY   70  59  68 CALM      29.87F
VIDALIA*       MOSUNNY   79  43  27 W8        29.83F
WAYCROSS*      CLOUDY    74  59  58 NW6       29.85F
DOUGLAS*       MOSUNNY   74  58  56 SW6       29.86F
$$



USA.gov is the U.S. government's official web portal to all federal, state and local government web resources and services.